Weather History for Bartow, FL

Change the Weather History Date:

Friday, February 3, 2012

  Actual Average Record
Temperature  
Mean Temperature 68 °F -  
Max Temperature 73 °F 75 °F 86 °F (1950)
Min Temperature 62 °F 52 °F 31 °F (1935)
Cooling Degree Days 2    
Growing Degree Days 18 (Base 50)    
Moisture  
Dew Point 59 °F    
Average Humidity 78    
Maximum Humidity 100    
Minimum Humidity 57    
Precipitation  
Precipitation 0.00 in - - ()
Sea Level Pressure  
Sea Level Pressure 30.21 in    
Wind  
Wind Speed 7 mph (ENE)    
Max Wind Speed 17 mph    
Max Gust Speed 25 mph    
Visibility 10 miles    
Events      
Averages and records for this station are not official NWS values.
T = Trace of Precipitation, MM = Missing Value Source: NWS Daily Summary

Daily Weather History Graph

Daily Weather History Graph

Search for Another Location

Airport:

Trip Planner

Search our weather history database for the weather conditions in past years. The results will help you decide how hot, cold, wet, or windy it might be!

Date:

Astronomy

Feb. 03, 2012 Rise Set
Actual Time 7:13 AM EST 6:08 PM EST
Civil Twilight 6:48 AM EST 6:33 PM EST
Nautical Twilight 6:20 AM EST 7:01 PM EST
Astronomical Twilight 5:53 AM EST 7:28 PM EST
Moon 2:19 PM EST (2/3) 3:37 AM EST (2/3)
Length of Visible Light 11h 44m
Length of Day
10h 55m
Waxing Gibbous, 81% of the Moon is Illuminated
Feb 3
Waxing Gibbous
Feb 7
Full
Feb 14
Last Quarter
Feb 21
New
Feb 29
First Quarter

Hourly Weather History & Observations

Time (EST) Temp. Dew Point Humidity Pressure Visibility Wind Dir Wind Speed Gust Speed Precip Events Conditions
12:35 AM 62.6 °F 59.0 °F 88% 30.19 in 10.0 mi ENE 4.6 mph - N/A   Clear
12:55 AM 62.6 °F 59.0 °F 88% 30.18 in 10.0 mi NE 4.6 mph - N/A   Clear
1:15 AM 64.4 °F 59.0 °F 83% 30.18 in 10.0 mi NE 6.9 mph - N/A   Clear
1:35 AM 62.6 °F 59.0 °F 88% 30.18 in 10.0 mi ENE 5.8 mph - N/A   Clear
1:55 AM 62.6 °F 59.0 °F 88% 30.18 in 10.0 mi NE 4.6 mph - N/A   Clear
2:15 AM 62.6 °F 59.0 °F 88% 30.18 in 10.0 mi East 4.6 mph - N/A   Clear
2:35 AM 62.6 °F 59.0 °F 88% 30.18 in 10.0 mi ENE 4.6 mph - N/A   Clear
2:55 AM 62.6 °F 59.0 °F 88% 30.18 in 10.0 mi ENE 3.5 mph - N/A   Clear
3:35 AM 62.6 °F 59.0 °F 88% 30.19 in 10.0 mi Calm Calm - N/A   Clear
4:15 AM 62.6 °F 60.8 °F 94% 30.18 in 10.0 mi NE 5.8 mph - N/A   Clear
4:35 AM 62.6 °F 60.8 °F 94% 30.18 in 10.0 mi NE 5.8 mph - N/A   Clear
4:55 AM 62.6 °F 59.0 °F 88% 30.18 in 10.0 mi NE 4.6 mph - N/A   Clear
5:15 AM 62.6 °F 60.8 °F 94% 30.19 in 10.0 mi NE 4.6 mph - N/A   Clear
5:35 AM 62.6 °F 60.8 °F 94% 30.18 in 10.0 mi NE 6.9 mph - N/A   Clear
6:15 AM 62.6 °F 60.8 °F 94% 30.19 in 10.0 mi NE 6.9 mph - N/A   Clear
6:35 AM 62.6 °F 60.8 °F 94% 30.19 in 10.0 mi NE 5.8 mph - N/A   Clear
6:55 AM 62.6 °F 62.6 °F 100% 30.20 in 10.0 mi NE 5.8 mph - N/A   Clear
7:30 AM 62.6 °F 62.6 °F 100% 30.22 in 10.0 mi NE 3.5 mph - N/A   Partly Cloudy
7:35 AM 62.6 °F 62.6 °F 100% 30.22 in 9.0 mi NE 4.6 mph - N/A   Scattered Clouds
7:54 AM 64.4 °F 62.6 °F 94% 30.23 in 10.0 mi NE 4.6 mph - N/A   Overcast
8:55 AM 66.2 °F 62.6 °F 88% 30.25 in 10.0 mi ENE 4.6 mph - N/A   Overcast
9:50 AM 69.8 °F 60.8 °F 73% 30.26 in 12.0 mi East 9.2 mph - N/A   Mostly Cloudy
10:50 AM 71.6 °F 60.8 °F 69% 30.26 in 12.0 mi East 9.2 mph - N/A   Overcast
11:51 AM 73.4 °F 59.0 °F 61% 30.25 in 12.0 mi East 16.1 mph 23.0 mph N/A   Overcast
12:53 PM 73.4 °F 59.0 °F 61% 30.22 in 12.0 mi East 16.1 mph 25.3 mph N/A   Overcast
1:52 PM 73.4 °F 57.2 °F 57% 30.20 in 12.0 mi East 17.3 mph 25.3 mph N/A   Overcast
2:50 PM 73.4 °F 57.2 °F 57% 30.19 in 12.0 mi East 13.8 mph 23.0 mph N/A   Overcast
3:15 PM 73.4 °F 57.2 °F 57% 30.19 in 10.0 mi East 12.7 mph - N/A   Scattered Clouds
3:35 PM 73.4 °F 57.2 °F 57% 30.19 in 9.0 mi East 11.5 mph - N/A   Partly Cloudy
3:55 PM 71.6 °F 55.4 °F 57% 30.19 in 10.0 mi East 11.5 mph 18.4 mph N/A   Partly Cloudy
4:15 PM 71.6 °F 57.2 °F 60% 30.19 in 9.0 mi East 11.5 mph - N/A   Scattered Clouds
4:35 PM 71.6 °F 55.4 °F 57% 30.20 in 10.0 mi East 11.5 mph 19.6 mph N/A   Partly Cloudy
4:55 PM 71.6 °F 57.2 °F 60% 30.21 in 10.0 mi East 12.7 mph 18.4 mph N/A   Scattered Clouds
5:15 PM 71.6 °F 57.2 °F 60% 30.21 in 9.0 mi East 15.0 mph - N/A   Mostly Cloudy
5:35 PM 69.8 °F 57.2 °F 64% 30.22 in 9.0 mi ENE 10.4 mph - N/A   Scattered Clouds
6:15 PM 69.8 °F 57.2 °F 64% 30.23 in 10.0 mi East 9.2 mph - N/A   Clear
6:35 PM 69.8 °F 57.2 °F 64% 30.22 in 10.0 mi East 9.2 mph - N/A   Clear
6:55 PM 68.0 °F 57.2 °F 68% 30.24 in 10.0 mi ENE 4.6 mph - N/A   Clear
7:15 PM 68.0 °F 57.2 °F 68% 30.24 in 10.0 mi ENE 8.1 mph - N/A   Clear
7:35 PM 66.2 °F 57.2 °F 73% 30.23 in 10.0 mi ENE 8.1 mph - N/A   Clear
7:55 PM 66.2 °F 57.2 °F 73% 30.24 in 10.0 mi NE 6.9 mph - N/A   Clear
8:35 PM 66.2 °F 59.0 °F 78% 30.24 in 10.0 mi ENE 9.2 mph - N/A   Clear
8:55 PM 66.2 °F 59.0 °F 78% 30.25 in 10.0 mi ENE 8.1 mph - N/A   Clear
9:15 PM 66.2 °F 59.0 °F 78% 30.25 in 10.0 mi ENE 10.4 mph - N/A   Clear
9:35 PM 66.2 °F 59.0 °F 78% 30.24 in 9.0 mi ENE 9.2 mph - N/A   Clear
9:55 PM 66.2 °F 59.0 °F 78% 30.23 in 9.0 mi ENE 11.5 mph - N/A   Clear
10:15 PM 66.2 °F 59.0 °F 78% 30.23 in 10.0 mi ENE 10.4 mph - N/A   Clear
10:35 PM 66.2 °F 59.0 °F 78% 30.23 in 8.0 mi ENE 9.2 mph - N/A   Clear
10:55 PM 66.2 °F 59.0 °F 78% 30.24 in 9.0 mi East 9.2 mph - N/A   Clear
11:15 PM 66.2 °F 59.0 °F 78% 30.23 in 10.0 mi East 9.2 mph - N/A   Clear
11:35 PM 66.2 °F 59.0 °F 78% 30.23 in 10.0 mi ENE 10.4 mph - N/A   Clear
11:55 PM 66.2 °F 59.0 °F 78% 30.22 in 10.0 mi ENE 10.4 mph - N/A   Clear